Bowling Green, KY

4:12 PM CDT on August 19, 2017 (GMT -0500)
Bowling Green-Warren County Regional

Weather History for KBWG - October, 2012

Change the Weather History Date:

Saturday, October 20, 2012

  Actual Average Record
Temperature  
Mean Temperature 53 °F 57 °F  
Max Temperature 60 °F 70 °F 88 °F (1908)
Min Temperature 45 °F 45 °F 26 °F (1917)
Degree Days  
Heating Degree Days 12 8  
Month to date heating degree days 141 118  
Since 1 July heating degree days 174 154  
Cooling Degree Days 0 1  
Month to date cooling degree days 5 29  
Year to date cooling degree days 1928 1484  
Growing Degree Days 4 (Base 50)    
Moisture  
Dew Point 44 °F    
Average Humidity 70    
Maximum Humidity 86    
Minimum Humidity 53    
Precipitation  
Precipitation 0.00 in 0.10 in 1.00 in (1905)
Month to date precipitation 2.65 2.16  
Year to date precipitation 34.13 39.65  
Snow  
Snow 0.00 in 0.00 in 1.00 in (1913)
Month to date snowfall 0.0 0.0  
Since 1 July snowfall 0.0 0.0  
Since 1 September snowfall 0.0 0.0  
Snow Depth 0.00 in    
Sea Level Pressure  
Sea Level Pressure 29.92 in    
Wind  
Wind Speed 5 mph (WSW)    
Max Wind Speed 13 mph    
Max Gust Speed 17 mph    
Visibility 10 miles    
Events      
T = Trace of Precipitation, MM = Missing Value Source: NWS Daily Summary

Daily Weather History Graph

Daily Weather History Graph

Search for Another Location

Airport or City:

Trip Planner

Search our weather history database for the weather conditions in past years. The results will help you decide how hot, cold, wet, or windy it might be!

Date:

Astronomy

Oct. 20, 2012 Rise Set
Actual Time 6:58 AM CDT 6:01 PM CDT
Civil Twilight 6:32 AM CDT 6:28 PM CDT
Nautical Twilight 6:01 AM CDT 6:58 PM CDT
Astronomical Twilight 5:31 AM CDT 7:28 PM CDT
Moon 12:29 PM CDT (10/20) 10:50 PM CDT (10/20)
Length of Visible Light 11h 55m
Length of Day
11h 03m
Waxing Crescent, 34% of the Moon is Illuminated
Oct 20
Waxing Crescent
Oct 21
First Quarter
Oct 29
Full
Nov 6
Last Quarter
Nov 13
New

Hourly Weather History & Observations

Time (CDT) Temp. Dew Point Humidity Pressure Visibility Wind Dir Wind Speed Gust Speed Precip Events Conditions
12:53 AM 53.1 °F 42.1 °F 66% 29.82 in 10.0 mi SW 3.5 mph - N/A   Overcast
1:53 AM 52.0 °F 43.0 °F 71% 29.83 in 10.0 mi SW 3.5 mph - N/A   Overcast
2:53 AM 52.0 °F 43.0 °F 71% 29.84 in 10.0 mi WSW 4.6 mph - N/A   Overcast
3:53 AM 52.0 °F 43.0 °F 71% 29.84 in 10.0 mi West 6.9 mph - N/A   Overcast
4:53 AM 52.0 °F 42.1 °F 69% 29.86 in 10.0 mi West 5.8 mph - N/A   Overcast
5:53 AM 52.0 °F 42.1 °F 69% 29.88 in 10.0 mi WSW 3.5 mph - N/A   Overcast
6:53 AM 50.0 °F 42.1 °F 74% 29.88 in 10.0 mi SW 3.5 mph - N/A   Partly Cloudy
7:53 AM 51.1 °F 43.0 °F 74% 29.91 in 10.0 mi SW 5.8 mph - N/A   Clear
8:53 AM 54.0 °F 44.1 °F 69% 29.93 in 10.0 mi WSW 9.2 mph - N/A   Mostly Cloudy
9:53 AM 55.0 °F 42.1 °F 62% 29.94 in 10.0 mi WSW 9.2 mph - N/A   Overcast
10:53 AM 55.9 °F 42.1 °F 60% 29.95 in 10.0 mi West 8.1 mph - N/A   Overcast
11:53 AM 57.0 °F 43.0 °F 59% 29.95 in 10.0 mi West 8.1 mph - N/A   Overcast
1:53 PM 59.0 °F 43.0 °F 55% 29.94 in 10.0 mi West 9.2 mph - N/A   Overcast
2:53 PM 59.0 °F 44.1 °F 58% 29.93 in 10.0 mi SW 9.2 mph - N/A   Overcast
3:53 PM 59.0 °F 45.0 °F 60% 29.94 in 10.0 mi West 5.8 mph - N/A   Overcast
4:53 PM 59.0 °F 45.0 °F 60% 29.95 in 10.0 mi Variable 3.5 mph - N/A   Overcast
5:53 PM 59.0 °F 45.0 °F 60% 29.95 in 10.0 mi Calm Calm - N/A   Overcast
6:53 PM 55.9 °F 46.9 °F 72% 29.96 in 10.0 mi East 3.5 mph - N/A   Overcast
7:53 PM 55.0 °F 46.9 °F 74% 29.97 in 10.0 mi Calm Calm - N/A   Overcast
8:53 PM 54.0 °F 46.0 °F 75% 29.98 in 10.0 mi Calm Calm - N/A   Mostly Cloudy
9:53 PM 52.0 °F 45.0 °F 77% 30.00 in 10.0 mi Calm Calm - N/A   Clear
10:53 PM 48.9 °F 45.0 °F 86% 30.00 in 10.0 mi Calm Calm - N/A   Clear
11:53 PM 46.0 °F 43.0 °F 89% 30.01 in 10.0 mi Calm Calm - N/A   Clear